Voltar ao catálogo

STARLINK-36072

AtivoComunicaçõesVLEO
NORAD 66856·PAYLOAD·🇺🇸 United States

Lançado Dec 2, 2025 de Cape Canaveral Space Force Station

Loading…

Próximas Passagens (próximas 24 horas)

TLE

AtualizadoSource: CelesTrak SupGP

Época: Sep 15, 2026, 03:26 UTC

1 66856C 25281J   26258.14354167  .00046716  00000+0  16914-2 0  2587
2 66856  43.0037 353.9295 0001893 269.1885 159.2663 15.27566752    15

Acompanhe STARLINK-36072 em tempo real com AllMySat

Download on the App Store